DECAYED

NOAA 16 DEB, 41431 (Decayed)

Orbit data source: Space-Track

NOAA 16 DEB, 41431 was space debris in LEO originally from a launch on Thu, 21 Sep 2000 UTC launched from the Air Force Western Test Range (AFWTR). Debris objects in space refer to the collection of defunct objects orbiting the Earth. Examples of debris include non-operational satellites, rocket bodies, and fragments generated from explosions, collisions, or faulty payload assembly.

Not visible in the next 10 days
NOAA 16 DEB details
Identifier
41431, 2000-055LL
Orbit
Decayed
Last TLE update2 months ago
Origin
Flag of USNOAA (US)
ManufacturerUnknown
MissionDecayed spacecraft
Bus & MotorUnknown
MassUnknown
Launch date (UTC)
2000-09-21 (24 years ago)
Launch vehicleUnknown
Launch site
Air Force Western Test Range (AFWTR)
Object type
Payload
Rocket body
Debris
Shape & HBRUnknown
Radar Cross SectionSmall (<0.1 m²)

Expand to show TLE details & history

TLE from 2 months ago
0 NOAA 16 DEB
1 41431U 00055LL  24269.94478429  .01591912  00000-0  43753-1 0  9994
2 41431  98.9198 152.9140 0012637  69.5077 290.7517 15.34215454454697
Epoch: 2024-09-25T22:40Z
Definitive object data (Epoch: 2024-09-25T22:40:29.362Z)
Latitude0.00003°
Longitude167.5543°
Altitude463.259 km
Speed7.637 km/s
True Right ascension10h 11m 39s
True Declination0° 00' 00"
Sunlit
Object was in daylight at TLE epoch
Visualization TLE readout
Latitude-43.35704°
Longitude-87.2787°
Altitude69,108.133 km
Speed2.296 km/s
Apparent Right ascension17h 20m 13s
Apparent Declination-43° 15' 28"
Sunlit
Object is in daylight
Visualization observer readout
Local Sidereal Time06:51:06
Azimuth108.58° ESE
Elevation-72.738°
Doppler factor1
Orbital elements
Apogee altitude468.912 km
Perigee altitude451.629 km
Semi-major axis6,838.407 km
Eccentricity0.0012637
Inclination98.9198°
RAAN152.914°
Arg. of periapsis69.5077°
True anomaly290.61621°
Mean anomaly290.7517°
Eccentric anomaly290.68396°
Mean motion3.83805 °/min
BSTAR0.043753
Orbital period93.8 mins
Loading maneuver chart data...
Loading historical data...
Loading historical data...
Loading historical data...
Loading historical data...
Loading historical data...
Loading historical data...
Loading historical data...

NOAA 16 DEB Visibility forecast

Observer location: undefined°, undefined

This satellite is decayed
Span
Click to sort rows by Start time (UTC) header in descending order
Start Az.
Max El. time (UTC)
Max El. Az.
Max El.
End time (UTC)
End Az.
|